Grand Junction, CO

1:37 PM MDT on April 26, 2017 (GMT -0600)
Walker

Weather History for KGJT - April, 2013

Change the Weather History Date:

Saturday, April 13, 2013

  Actual Average Record
Temperature  
Mean Temperature 54 °F 51 °F  
Max Temperature 70 °F 64 °F 82 °F (2006)
Min Temperature 37 °F 37 °F 19 °F (1997)
Degree Days  
Heating Degree Days 11 14  
Month to date heating degree days 201 206  
Since 1 July heating degree days 5613 5238  
Cooling Degree Days 0 0  
Month to date cooling degree days 0 0  
Year to date cooling degree days 0 0  
Growing Degree Days 4 (Base 50)    
Moisture  
Dew Point 26 °F    
Average Humidity 58    
Maximum Humidity 100    
Minimum Humidity 16    
Precipitation  
Precipitation 0.15 in 0.03 in 0.48 in (1996)
Month to date precipitation 0.26 0.42  
Year to date precipitation 1.61 2.46  
Snow  
Snow 0.00 in 0.10 in 0.70 in (1933)
Month to date snowfall 0.0 0.7  
Since 1 July snowfall 20.0 18.8  
Snow Depth 0.00 in    
Sea Level Pressure  
Sea Level Pressure 29.57 in    
Wind  
Wind Speed 13 mph (South)    
Max Wind Speed 39 mph    
Max Gust Speed 54 mph    
Visibility 10 miles    
Events Rain    
T = Trace of Precipitation, MM = Missing Value Source: NWS Daily Summary

Daily Weather History Graph

Daily Weather History Graph

Search for Another Location

Airport or City:

Trip Planner

Search our weather history database for the weather conditions in past years. The results will help you decide how hot, cold, wet, or windy it might be!

Date:

Astronomy

Apr. 13, 2013 Rise Set
Actual Time 6:39 AM MDT 7:49 PM MDT
Civil Twilight 6:12 AM MDT 8:17 PM MDT
Nautical Twilight 5:39 AM MDT 8:50 PM MDT
Astronomical Twilight 5:05 AM MDT 9:24 PM MDT
Moon 8:34 AM MDT (4/13) 11:15 PM MDT (4/13)
Length of Visible Light 14h 05m
Length of Day
13h 10m
Waxing Crescent, 11% of the Moon is Illuminated
Apr 13
Waxing Crescent
Apr 18
First Quarter
Apr 25
Full
May 2
Last Quarter
May 9
New

Hourly Weather History & Observations

Time (MDT) Temp. Windchill Dew Point Humidity Pressure Visibility Wind Dir Wind Speed Gust Speed Precip Events Conditions
12:53 AM 42.1 °F 35.2 °F 21.0 °F 43% 29.81 in 10.0 mi East 12.7 mph - N/A   Clear
1:53 AM 45.0 °F 38.5 °F 21.0 °F 39% 29.79 in 10.0 mi East 13.8 mph - N/A   Clear
2:53 AM 44.1 °F 39.0 °F 24.1 °F 45% 29.78 in 10.0 mi East 9.2 mph - N/A   Clear
3:53 AM 37.9 °F 30.5 °F 21.9 °F 53% 29.77 in 10.0 mi East 11.5 mph - N/A   Clear
4:53 AM 39.9 °F 31.8 °F 23.0 °F 51% 29.75 in 10.0 mi ESE 15.0 mph - N/A   Clear
5:53 AM 39.9 °F 31.1 °F 24.1 °F 53% 29.75 in 10.0 mi SE 17.3 mph - N/A   Clear
6:53 AM 39.0 °F 30.6 °F 23.0 °F 53% 29.74 in 10.0 mi SE 15.0 mph - N/A   Clear
7:53 AM 43.0 °F 36.4 °F 24.1 °F 47% 29.75 in 10.0 mi SE 12.7 mph - N/A   Clear
8:53 AM 46.9 °F - 23.0 °F 39% 29.73 in 10.0 mi SE 12.7 mph - N/A   Clear
9:53 AM 52.0 °F - 24.1 °F 34% 29.69 in 10.0 mi ESE 9.2 mph - N/A   Clear
10:53 AM 60.1 °F - 19.9 °F 21% 29.63 in 10.0 mi SE 15.0 mph - N/A   Clear
11:53 AM 57.0 °F - 27.0 °F 32% 29.62 in 10.0 mi West 11.5 mph - N/A   Mostly Cloudy
12:53 PM 57.9 °F - 26.1 °F 30% 29.58 in 10.0 mi NW 11.5 mph - N/A   Overcast
1:53 PM 60.1 °F - 19.0 °F 20% 29.53 in 10.0 mi North 10.4 mph - N/A   Overcast
2:53 PM 62.1 °F - 18.0 °F 18% 29.50 in 10.0 mi NW 4.6 mph - N/A   Mostly Cloudy
3:53 PM 63.0 °F - 18.0 °F 18% 29.45 in 10.0 mi Calm Calm - N/A   Clear
4:53 PM 69.1 °F - 21.9 °F 17% 29.38 in 10.0 mi WSW 25.3 mph 33.4 mph N/A   Mostly Cloudy
5:53 PM 68.0 °F - 23.0 °F 18% 29.34 in 10.0 mi SW 17.3 mph - N/A   Overcast
6:53 PM 66.0 °F - 24.1 °F 20% 29.31 in 10.0 mi West 13.8 mph - N/A   Mostly Cloudy
7:53 PM 60.1 °F - 34.0 °F 38% 29.37 in 8.0 mi WSW 31.1 mph 48.3 mph 0.00 in Rain Light Rain
8:22 PM 60.8 °F - 30.2 °F 31% 29.46 in 10.0 mi WSW 17.3 mph 24.2 mph 0.00 in   Overcast
8:53 PM 61.0 °F - 30.0 °F 31% 29.32 in 10.0 mi SSW 3.5 mph - 0.00 in   Overcast
9:53 PM 57.0 °F - 36.0 °F 45% 29.41 in 10.0 mi WNW 16.1 mph 25.3 mph 0.00 in   Overcast
10:53 PM 48.9 °F - 44.1 °F 83% 29.46 in 5.0 mi West 10.4 mph - 0.03 in Rain Rain
11:53 PM 46.9 °F - 46.0 °F 97% 29.51 in 10.0 mi SSW 6.9 mph - 0.07 in Rain Light Rain